TimePST,TemperatureF,Dew PointF,Humidity,Sea Level PressureIn,VisibilityMPH,Wind Direction,Wind SpeedMPH,Gust SpeedMPH,PrecipitationIn,Events,Conditions,WindDirDegrees,DateUTC
12:53 AM,43.0,21.9,43,30.21,10.0,East,3.5,-,N/A,,Clear,100,2013-02-25 08:53:00
1:53 AM,44.1,17.1,34,30.22,10.0,ENE,3.5,-,N/A,,Clear,60,2013-02-25 09:53:00
2:53 AM,43.0,15.1,32,30.20,10.0,NE,6.9,-,N/A,,Partly Cloudy,40,2013-02-25 10:53:00
3:53 AM,44.1,14.0,30,30.20,10.0,NNE,4.6,-,N/A,,Partly Cloudy,30,2013-02-25 11:53:00
4:53 AM,44.1,15.1,31,30.20,10.0,East,3.5,-,N/A,,Partly Cloudy,100,2013-02-25 12:53:00
5:53 AM,42.1,17.1,37,30.22,10.0,Calm,Calm,-,N/A,,Partly Cloudy,0,2013-02-25 13:53:00
6:53 AM,41.0,19.0,41,30.22,10.0,Calm,Calm,-,N/A,,Clear,0,2013-02-25 14:53:00
7:53 AM,48.9,18.0,29,30.22,10.0,ENE,3.5,-,N/A,,Clear,60,2013-02-25 15:53:00
8:53 AM,55.0,14.0,20,30.21,10.0,Variable,3.5,-,N/A,,Clear,0,2013-02-25 16:53:00
9:53 AM,57.9,10.0,15,30.19,10.0,Calm,Calm,-,N/A,,Clear,0,2013-02-25 17:53:00
10:53 AM,62.1,9.0,12,30.18,10.0,Calm,Calm,-,N/A,,Clear,0,2013-02-25 18:53:00
11:53 AM,64.9,10.0,12,30.16,10.0,SW,4.6,-,N/A,,Clear,220,2013-02-25 19:53:00
12:53 PM,66.0,8.1,10,30.13,10.0,SSW,3.5,-,N/A,,Clear,200,2013-02-25 20:53:00
1:53 PM,68.0,12.9,12,30.10,10.0,SW,8.1,-,N/A,,Partly Cloudy,220,2013-02-25 21:53:00
2:53 PM,68.0,12.9,12,30.09,10.0,WSW,9.2,-,N/A,,Partly Cloudy,250,2013-02-25 22:53:00
3:53 PM,66.0,17.1,15,30.08,10.0,WSW,10.4,-,N/A,,Partly Cloudy,240,2013-02-25 23:53:00
4:53 PM,63.0,24.1,23,30.07,10.0,WSW,10.4,-,N/A,,Partly Cloudy,250,2013-02-26 00:53:00
5:53 PM,60.1,27.0,28,30.07,10.0,SW,8.1,-,N/A,,Partly Cloudy,230,2013-02-26 01:53:00
6:53 PM,55.9,30.0,37,30.08,10.0,WSW,6.9,-,N/A,,Partly Cloudy,240,2013-02-26 02:53:00
7:53 PM,54.0,34.0,47,30.09,10.0,WSW,6.9,-,N/A,,Clear,250,2013-02-26 03:53:00
8:53 PM,51.1,36.0,56,30.09,10.0,West,3.5,-,N/A,,Clear,280,2013-02-26 04:53:00
9:53 PM,48.9,37.0,64,30.10,10.0,NW,4.6,-,N/A,,Clear,320,2013-02-26 05:53:00
10:53 PM,50.0,33.1,52,30.10,10.0,Calm,Calm,-,N/A,,Clear,0,2013-02-26 06:53:00
11:53 PM,46.9,32.0,56,30.09,10.0,Calm,Calm,-,N/A,,Clear,0,2013-02-26 07:53:00